RTU MIREA 1 (RS51S)

Last updated on Mon Nov 03 2025 00:03:22 GMT+0000 (Coordinated Universal Time)

1 61785U 24199BC 25306.54237185 .00030352 00000+0 73944-3 0 9995 2 61785 97.3277 174.8527 0014095 36.5522 323.6684 15.40763581 99358
UTC large
Height (km)
Speed (km/s)
/
Latitude / Longitude
Inclination (degrees)
Orbital Period (minutes)
Azimuth
Elevation
Range (km)
Doppler Factor

Next 0 passes for location: London (51.5072 / 0.1276)

Sorry there are no passes over London.